カタログに戻る

STARLINK-37107

運用中通信SSO
NORAD 68294·PAYLOAD·🇺🇸 United States

打ち上げ Mar 20, 2026 から Vandenberg Space Force Base

Loading…

次のパス (今後24時間)

TLE

最新Source: CelesTrak SupGP

元期: Sep 14, 2026, 21:06 UTC

1 68294C 26057A   26257.87965278  .00005891  00000+0  18281-3 0  2575
2 68294  97.2855  23.3815 0000918 103.0142 266.3266 15.33445710    13

AllMySatでSTARLINK-37107をリアルタイム追跡

Download on the App Store